Location: Ohmer (historical)
(38.0096°N, 122.0227°W)
Time: 19:16:33
(UTC+00:00)

IRS-1D - Pass Details

Date: 14 February 2026
Orbit: 736 x 811 km, 98.8° (Epoch: 10 March)

Event Time Altitude Azimuth Distance (km) Brightness Sun altitude
Rises 13:06:48 0° 15° (NNE) 3,289 7.0 -22.7°
Reaches altitude 10° 13:09:10 10° 18° (NNE) 2,345 6.2 -22.2°
Maximum altitude 13:14:19 71° 102° (ESE) 815 3.7 -21.2°
Drops below altitude 10° 13:19:20 10° 187° (S) 2,281 5.9 -20.2°
Sets 13:21:36 0° 189° (S) 3,191 6.6 -19.8°
